User: anonymous   Login
Location: *
(90.0000°N, 180.0000°W)
Time: 03:40:05
(UTC+02:00)
Language:

Cosmos 1825 - Orbit

View from above orbital plane
View from above orbital plane
View from above satellite
View from above satellite

Ground track
Ground track

The orbit data is extracted from the following two-line orbital elements,

1 17566U 87024A   16211.65233327  .00000970  00000-0  46262-4 0  9998
2 17566  82.5038 249.7413 0002380 247.4121 112.6861 15.17934318604903
Epoch (UTC): 29 July 2016 15:39:21
Eccentricity: 0.0002380
inclination: 82.5038°
perigee height: 510 km
apogee height: 514 km
right ascension of ascending node: 249.7413°
argument of perigee: 247.4121°
revolutions per day: 15.17934318
mean anomaly at epoch: 112.6861°
orbit number at epoch: 60490

The dashed part of the orbit path shows where the satellite is in the earth's shadow,  

DLR